H1 CPF 2 NER 2024 12 10 9 345 01 glonass144 H2 2207501 9144 52984 2024 12 10 0 0 0 2024 12 13 23 45 0 900 1 1 0 0 0 1 H9 10 0 60654 0.00000 0 7206154.320 -12065847.463 21317054.917 10 0 60654 900.00000 0 7954296.231 -9485965.398 22333285.077 10 0 60654 1800.00000 0 8923575.410 -6875889.281 22917160.248 10 0 60654 2700.00000 0 10098939.913 -4303088.966 23057461.150 10 0 60654 3600.00000 0 11453573.953 -1831695.024 22751522.629 10 0 60654 4500.00000 0 12949896.771 479937.088 22005280.626 10 0 60654 5400.00000 0 14541026.163 2581414.068 20833157.748 10 0 60654 6300.00000 0 16172646.877 4432154.359 19257789.515 10 0 60654 7200.00000 0 17785207.485 6002825.295 17309595.966 10 0 60654 8100.00000 0 19316355.692 7276309.556 15026205.869 10 0 60654 9000.00000 0 20703512.015 8248161.778 12451743.295 10 0 60654 9900.00000 0 21886475.570 8926536.856 9635988.883 10 0 60654 10800.00000 0 22809953.894 9331593.157 6633430.499 10 0 60654 11700.00000 0 23425911.231 9494395.547 3502220.251 10 0 60654 12600.00000 0 23695636.651 9455363.931 303057.015 10 0 60654 13500.00000 0 23591444.412 9262332.205 -2901984.690 10 0 60654 14400.00000 0 23097933.902 8968299.095 -6050657.140 10 0 60654 15300.00000 0 22212754.516 8628965.697 -9081749.804 10 0 60654 16200.00000 0 20946841.376 8300163.937 -11936283.836 10 0 60654 17100.00000 0 19324109.970 8035285.199 -14558666.851 10 0 60654 18000.00000 0 17380620.571 7882818.805 -16897784.657 10 0 60654 18900.00000 0 15163245.779 7884105.661 -18908007.794 10 0 60654 19800.00000 0 12727895.636 8071403.563 -20550092.314 10 0 60654 20700.00000 0 10137373.640 8466347.599 -21791956.325 10 0 60654 21600.00000 0 7458952.774 9078872.381 -22609316.328 10 0 60654 22500.00000 0 4761772.592 9906643.277 -22986170.219 10 0 60654 23400.00000 0 2114166.150 10935022.097 -22915116.926 10 0 60654 24300.00000 0 -418971.399 12137569.931 -22397505.958 10 0 60654 25200.00000 0 -2778662.516 13477066.832 -21443413.630 10 0 60654 26100.00000 0 -4914071.562 14907005.907 -20071446.201 10 0 60654 27000.00000 0 -6784380.856 16373499.014 -18308373.753 10 0 60654 27900.00000 0 -8360240.506 17817513.605 -16188602.065 10 0 60654 28800.00000 0 -9624732.133 19177345.922 -13753493.155 10 0 60654 29700.00000 0 -10573807.383 20391225.628 -11050548.293 10 0 60654 30600.00000 0 -11216184.522 21399941.271 -8132470.185 10 0 60654 31500.00000 0 -11572709.524 22149375.082 -5056123.618 10 0 60654 32400.00000 0 -11675210.865 22592839.602 -1881415.908 10 0 60654 33300.00000 0 -11564898.768 22693117.233 1329879.864 10 0 60654 34200.00000 0 -11290378.785 22424116.674 4515334.768 10 0 60654 35100.00000 0 -10905365.800 21772076.747 7613082.585 10 0 60654 36000.00000 0 -10466196.782 20736267.534 10563022.657 10 0 60654 36900.00000 0 -10029248.631 19329160.191 13307983.282 10 0 60654 37800.00000 0 -9648370.884 17576059.226 15794823.231 10 0 60654 38700.00000 0 -9372441.713 15514213.545 17975450.592 10 0 60654 39600.00000 0 -9243149.887 13191444.141 19807740.186 10 0 60654 40500.00000 0 -9293095.293 10664346.051 21256333.136 10 0 60654 41400.00000 0 -9544286.884 7996139.362 22293304.710 10 0 60654 42300.00000 0 -10007100.091 5254258.064 22898689.131 10 0 60654 43200.00000 0 -10679736.552 2507775.734 23060852.751 10 0 60654 44100.00000 0 -11548208.210 -175226.754 22776709.688 10 0 60654 45000.00000 0 -12586846.338 -2730244.246 22051776.623 10 0 60654 45900.00000 0 -13759314.567 -5098776.134 20900066.155 10 0 60654 46800.00000 0 -15020084.413 -7230502.415 19343820.672 10 0 60654 47700.00000 0 -16316312.827 -9085118.663 17413091.298 10 0 60654 48600.00000 0 -17590044.747 -10633755.356 15145169.063 10 0 60654 49500.00000 0 -18780650.021 -11859923.823 12583877.927 10 0 60654 50400.00000 0 -19827394.058 -12759950.154 9778741.865 10 0 60654 51300.00000 0 -20672035.574 -13342879.358 6784040.609 10 0 60654 52200.00000 0 -21261343.074 -13629853.758 3657770.901 10 0 60654 53100.00000 0 -21549424.462 -13652991.407 460532.273 10 0 60654 54000.00000 0 -21499771.343 -13453811.201 -2745641.856 10 0 60654 54900.00000 0 -21086930.932 -13081270.568 -5898485.531 10 0 60654 55800.00000 0 -20297733.624 -12589498.137 -8936710.726 10 0 60654 56700.00000 0 -19132022.612 -12035317.001 -11801203.104 10 0 60654 57600.00000 0 -17602852.665 -11475663.456 -14436179.228 10 0 60654 58500.00000 0 -15736147.498 -10965010.845 -16790281.867 10 0 60654 59400.00000 0 -13569828.019 -10552908.323 -18817591.170 10 0 60654 60300.00000 0 -11152446.175 -10281739.702 -20478531.080 10 0 60654 61200.00000 0 -8541380.173 -10184798.430 -21740652.362 10 0 60654 62100.00000 0 -5800665.541 -10284761.434 -22579276.182 10 0 60654 63000.00000 0 -2998552.020 -10592627.655 -22977984.936 10 0 60654 63900.00000 0 -204888.068 -11107167.326 -22928950.134 10 0 60654 64800.00000 0 2511557.865 -11814906.301 -22433090.483 10 0 60654 65700.00000 0 5085727.403 -12690646.809 -21500056.684 10 0 60654 66600.00000 0 7458743.686 -13698503.112 -20148043.064 10 0 60654 67500.00000 0 9580120.949 -14793408.427 -18403429.650 10 0 60654 68400.00000 0 11409620.153 -15923029.264 -16300261.775 10 0 60654 69300.00000 0 12918673.522 -17030005.792 -13879577.751 10 0 60654 70200.00000 0 14091319.321 -18054422.867 -11188598.255 10 0 60654 71100.00000 0 14924609.049 -18936406.438 -8279794.006 10 0 60654 72000.00000 0 15428471.735 -19618734.697 -5209850.895 10 0 60654 72900.00000 0 15625043.180 -20049352.836 -2038553.870 10 0 60654 73800.00000 0 15547490.764 -20183684.542 1172387.576 10 0 60654 74700.00000 0 15238385.711 -19986642.270 4360548.234 10 0 60654 75600.00000 0 14747693.816 -19434251.425 7464005.886 10 0 60654 76500.00000 0 14130471.382 -18514820.272 10422545.482 10 0 60654 77400.00000 0 13444365.171 -17229606.851 13178825.034 10 0 60654 78300.00000 0 12747022.843 -15592955.553 15679480.711 10 0 60654 79200.00000 0 12093523.454 -13631898.341 17876150.253 10 0 60654 80100.00000 0 11533936.066 -11385237.893 19726395.824 10 0 60654 81000.00000 0 11111108.508 -8902151.304 21194509.781 10 0 60654 81900.00000 0 10858778.138 -6240372.454 22252189.315 10 0 60654 82800.00000 0 10800082.690 -3464028.193 22879068.526 10 0 60654 83700.00000 0 10946532.382 -641217.197 23063099.206 10 0 60654 84600.00000 0 11297485.308 2158569.551 22800774.286 10 0 60654 85500.00000 0 11840147.387 4867081.500 22097190.504 10 0 60655 0.00000 0 12550096.563 7419887.289 20965949.713 10 0 60655 900.00000 0 13392310.007 9758796.098 19428899.957 10 0 60655 1800.00000 0 14322651.081 11834019.866 17515722.403 10 0 60655 2700.00000 0 15289756.174 13605992.923 15263369.085 10 0 60655 3600.00000 0 16237242.756 15046771.390 12715362.458 10 0 60655 4500.00000 0 17106147.748 16140956.391 9920968.281 10 0 60655 5400.00000 0 17837494.959 16886102.853 6934256.424 10 0 60655 6300.00000 0 18374884.547 17292596.847 3813066.325 10 0 60655 7200.00000 0 18666995.922 17383006.357 617896.057 10 0 60655 8100.00000 0 18669898.493 17190932.228 -2589264.338 10 0 60655 9000.00000 0 18349072.120 16759407.047 -5746133.057 10 0 60655 9900.00000 0 17681050.737 16138908.870 -8791347.008 10 0 60655 10800.00000 0 16654618.028 15385073.206 -11665658.763 10 0 60655 11700.00000 0 15271502.620 14556199.723 -14313096.148 10 0 60655 12600.00000 0 13546541.144 13710659.202 -16682061.076 10 0 60655 13500.00000 0 11507299.966 12904310.772 -18726345.346 10 0 60655 14400.00000 0 9193169.234 12188039.341 -20406042.672 10 0 60655 15300.00000 0 6653965.369 11605518.220 -21688338.205 10 0 60655 16200.00000 0 3948098.996 11191292.517 -22548159.340 10 0 60655 17100.00000 0 1140383.853 10969265.320 -22968674.341 10 0 60655 18000.00000 0 -1700422.374 10951651.559 -22941628.442 10 0 60655 18900.00000 0 -4504242.944 11138444.506 -22467510.373 10 0 60655 19800.00000 0 -7202363.130 11517417.990 -21555545.686 10 0 60655 20700.00000 0 -9730055.439 12064664.450 -20223516.820 10 0 60655 21600.00000 0 -12029039.252 12745646.045 -18497413.331 10 0 60655 22500.00000 0 -14049672.165 13516713.998 -16410919.258 10 0 60655 23400.00000 0 -15752781.610 14327031.279 -14004747.950 10 0 60655 24300.00000 0 -17111060.704 15120816.429 -11325837.875 10 0 60655 25200.00000 0 -18109970.846 15839812.530 -8426425.846 10 0 60655 26100.00000 0 -18748114.590 16425875.795 -5363016.713 10 0 60655 27000.00000 0 -19037064.950 16823573.152 -2195270.696 10 0 60655 27900.00000 0 -19000660.458 16982678.092 1015168.815 10 0 60655 28800.00000 0 -18673797.932 16860458.553 4205882.995 10 0 60655 29700.00000 0 -18100776.126 16423659.852 7314896.403 10 0 60655 30600.00000 0 -17333262.195 15650098.919 10281882.464 10 0 60655 31500.00000 0 -16427968.459 14529802.925 13049331.813 10 0 60655 32400.00000 0 -15444138.659 13065644.796 15563660.903 10 0 60655 33300.00000 0 -14440950.220 11273449.536 17776239.927 10 0 60655 34200.00000 0 -13474941.927 9181567.338 19644321.042 10 0 60655 35100.00000 0 -12597574.577 6829931.682 21131850.255 10 0 60655 36000.00000 0 -11853026.035 4268641.661 22210148.808 10 0 60655 36900.00000 0 -11276311.819 1556127.167 22858452.471 10 0 60655 37800.00000 0 -10891808.460 -1243027.700 23064299.899 10 0 60655 38700.00000 0 -10712240.018 -4060513.999 22823763.852 10 0 60655 39600.00000 0 -10738168.954 -6826881.053 22141521.730 10 0 60655 40500.00000 0 -10958011.844 -9474168.228 21030764.570 10 0 60655 41400.00000 0 -11348578.916 -11938478.444 19512946.221 10 0 60655 42300.00000 0 -11876115.006 -14162388.720 17617377.020 10 0 60655 43200.00000 0 -12497798.901 -16097099.618 15380668.881 10 0 60655 44100.00000 0 -13163639.197 -17704235.750 12846041.221 10 0 60655 45000.00000 0 -13818688.210 -18957223.478 10062499.680 10 0 60655 45900.00000 0 -14405482.027 -19842188.970 7083902.028 10 0 60655 46800.00000 0 -14866605.002 -20358339.207 3967927.875 10 0 60655 47700.00000 0 -15147271.213 -20517809.724 774971.053 10 0 60655 48600.00000 0 -15197814.157 -20344984.918 -2433024.781 10 0 60655 49500.00000 0 -14975979.141 -19875318.758 -5593765.164 10 0 60655 50400.00000 0 -14448920.541 -19153704.793 -8645815.284 10 0 60655 51300.00000 0 -13594818.051 -18232463.499 -11529798.062 10 0 60655 52200.00000 0 -12404041.649 -17169031.413 -14189556.043 10 0 60655 53100.00000 0 -10879813.872 -16023449.432 -16573253.666 10 0 60655 54000.00000 0 -9038339.005 -14855756.427 -18634397.557 10 0 60655 54900.00000 0 -6908391.329 -13723398.614 -20332754.052 10 0 60655 55800.00000 0 -4530377.503 -12678764.673 -21635145.097 10 0 60655 56700.00000 0 -1954910.483 -11766951.412 -22516106.184 10 0 60655 57600.00000 0 759046.816 -11023855.040 -22958392.724 10 0 60655 58500.00000 0 3546391.470 -10474669.324 -22953324.349 10 0 60655 59400.00000 0 6338352.415 -10132854.567 -22500959.916 10 0 60655 60300.00000 0 9065121.251 -9999621.226 -21610099.405 10 0 60655 61200.00000 0 11658532.089 -10063950.045 -20298112.465 10 0 60655 62100.00000 0 14054678.371 -10303147.546 -18590596.862 10 0 60655 63000.00000 0 16196357.212 -10683912.847 -16520873.615 10 0 60655 63900.00000 0 18035238.978 -11163869.822 -14129328.991 10 0 60655 64800.00000 0 19533671.567 -11693498.665 -11462616.753 10 0 60655 65700.00000 0 20666044.409 -12218383.869 -8572736.941 10 0 60655 66600.00000 0 21419655.950 -12681682.071 -5516010.169 10 0 60655 67500.00000 0 21795049.623 -13026703.969 -2351968.488 10 0 60655 68400.00000 0 21805806.010 -13199499.827 857814.419 10 0 60655 69300.00000 0 21477801.940 -13151338.183 4050929.744 10 0 60655 70200.00000 0 20847969.938 -12840972.275 7165352.356 10 0 60655 71100.00000 0 19962612.348 -12236598.117 10140647.457 10 0 60655 72000.00000 0 18875342.986 -11317421.583 12919141.274 10 0 60655 72900.00000 0 17644744.467 -10074768.732 15447033.099 10 0 60655 73800.00000 0 16331840.620 -8512693.081 17675427.675 10 0 60655 74700.00000 0 14997490.585 -6648054.762 19561268.765 10 0 60655 75600.00000 0 13699813.651 -4510068.549 21068157.167 10 0 60655 76500.00000 0 12491751.959 -2139339.643 22167038.850 10 0 60655 77400.00000 0 11418871.845 413572.860 22836751.507 10 0 60655 78300.00000 0 10517494.219 3090005.843 23064420.514 10 0 60655 79200.00000 0 9813230.438 5825379.687 22845697.960 10 0 60655 80100.00000 0 9319983.296 8551634.246 22184841.090 10 0 60655 81000.00000 0 9039453.521 11199814.115 21094629.165 10 0 60655 81900.00000 0 8961171.499 13702698.082 19596120.318 10 0 60655 82800.00000 0 9063052.455 15997365.702 17718252.639 10 0 60655 83700.00000 0 9312451.880 18027596.387 15497296.262 10 0 60655 84600.00000 0 9667677.462 19746002.887 12976165.758 10 0 60655 85500.00000 0 10079894.822 21115811.523 10203604.700 10 0 60656 0.00000 0 10495347.879 22112215.569 7233256.936 10 0 60656 900.00000 0 10857801.472 22723245.919 4122639.493 10 0 60656 1800.00000 0 11111103.441 22950121.079 932039.863 10 0 60656 2700.00000 0 11201759.095 22807062.986 -2276647.104 10 0 60656 3600.00000 0 11081408.612 22320584.107 -5441116.757 10 0 60656 4500.00000 0 10709102.182 21528275.461 -8499864.990 10 0 60656 5400.00000 0 10053275.413 20477145.571 -11393387.412 10 0 60656 6300.00000 0 9093339.774 19221579.575 -14065343.490 10 0 60656 7200.00000 0 7820818.732 17821004.026 -16463662.208 10 0 60656 8100.00000 0 6239979.256 16337355.624 -18541566.858 10 0 60656 9000.00000 0 4367929.543 14832460.678 -20258498.052 10 0 60656 9900.00000 0 2234176.480 13365436.095 -21580915.993 10 0 60656 10800.00000 0 -120340.792 11990221.940 -22482965.545 10 0 60656 11700.00000 0 -2644702.489 10753350.094 -22946990.324 10 0 60656 12600.00000 0 -5279885.579 9692043.591 -22963885.159 10 0 60656 13500.00000 0 -7960989.327 8832727.101 -22533279.508 10 0 60656 14400.00000 0 -10619716.467 8190011.506 -21663547.886 10 0 60656 15300.00000 0 -13187006.437 7766195.301 -20371646.841 10 0 60656 16200.00000 0 -15595710.500 7551303.395 -18682781.614 10 0 60656 17100.00000 0 -17783196.713 7523660.921 -16629909.061 10 0 60656 18000.00000 0 -19693775.513 7650976.751 -14253086.882 10 0 60656 18900.00000 0 -21280844.315 7891889.583 -11598682.358 10 0 60656 19800.00000 0 -22508661.495 8197909.652 -8718456.779 10 0 60656 20700.00000 0 -23353675.849 8515672.300 -5668544.381 10 0 60656 21600.00000 0 -23805356.725 8789406.322 -2508346.778 10 0 60656 22500.00000 0 -23866491.316 8963511.118 700634.415 10 0 60656 23400.00000 0 -23552938.282 8985132.223 3896002.882 10 0 60656 24300.00000 0 -22892850.049 8806625.289 7015686.369 10 0 60656 25200.00000 0 -21925398.439 8387803.687 9999144.511 10 0 60656 26100.00000 0 -20699059.157 7697874.559 12788541.827 10 0 60656 27000.00000 0 -19269528.813 6716981.731 15329863.143 10 0 60656 27900.00000 0 -17697363.135 5437290.786 17573950.352 10 0 60656 28800.00000 0 -16045436.040 3863571.091 19477441.250 10 0 60656 29700.00000 0 -14376326.049 2013250.698 21003593.587 10 0 60656 30600.00000 0 -12749738.788 -84058.054 22122979.902 10 0 60656 31500.00000 0 -11220072.184 -2387542.608 22814041.266 10 0 60656 32400.00000 0 -9834224.497 -4846643.492 23063490.827 10 0 60656 33300.00000 0 -8629734.843 -7402917.422 22866560.654 10 0 60656 34200.00000 0 -7633331.980 -9992234.171 22227088.099 10 0 60656 35100.00000 0 -6859950.171 -12547217.759 21157440.525 10 0 60656 36000.00000 0 -6312251.814 -14999832.605 19678279.877 10 0 60656 36900.00000 0 -5980675.799 -17284009.275 17818171.195 10 0 60656 37800.00000 0 -5844009.068 -19338202.689 15613041.701 10 0 60656 38700.00000 0 -5870457.412 -21107778.072 13105499.709 10 0 60656 39600.00000 0 -6019170.972 -22547126.556 10344025.039 10 0 60656 40500.00000 0 -6242160.975 -23621422.993 7382045.157 10 0 60656 41400.00000 0 -6486527.813 -24307952.823 4276913.438 10 0 60656 42300.00000 0 -6696907.234 -24596952.223 1088808.206 10 0 60656 43200.00000 0 -6818031.839 -24491925.680 -2120427.006 10 0 60656 44100.00000 0 -6797299.730 -24009426.679 -5288480.031 10 0 60656 45000.00000 0 -6587241.280 -23178309.570 -8353780.316 10 0 60656 45900.00000 0 -6147778.748 -22038482.931 -11256699.141 10 0 60656 46800.00000 0 -5448181.724 -20639215.822 -13940715.962 10 0 60656 47700.00000 0 -4468633.830 -19037067.407 -16353527.383 10 0 60656 48600.00000 0 -3201342.294 -17293526.576 -18448076.336 10 0 60656 49500.00000 0 -1651141.126 -15472460.652 -20183480.465 10 0 60656 50400.00000 0 164439.912 -13637480.642 -21525840.660 10 0 60656 51300.00000 0 2215645.816 -11849334.107 -22448913.156 10 0 60656 52200.00000 0 4461488.572 -10163435.701 -22934631.293 10 0 60656 53100.00000 0 6851221.174 -8627639.638 -22973466.101 10 0 60656 54000.00000 0 9326232.860 -7280348.068 -22564618.145 10 0 60656 54900.00000 0 11822286.996 -6149035.027 -21716036.498 10 0 60656 55800.00000 0 14272008.277 -5249247.925 -20444264.191 10 0 60656 56700.00000 0 16607515.129 -4584128.121 -18774113.092 10 0 60656 57600.00000 0 18763086.940 -4144469.916 -16738174.636 10 0 60656 58500.00000 0 20677754.030 -3909314.320 -14376176.258 10 0 60656 59400.00000 0 22297701.545 -3847050.983 -11734196.633 10 0 60656 60300.00000 0 23578386.370 -3916980.020 -8863755.739 10 0 60656 61200.00000 0 24486278.324 -4071265.804 -5820798.474 10 0 60656 62100.00000 0 25000153.077 -4257198.122 -2664592.729 10 0 60656 63000.00000 0 25111883.367 -4419663.205 543435.479 10 0 60656 63900.00000 0 24826696.532 -4503718.379 3740905.950 10 0 60656 64800.00000 0 24162889.140 -4457160.112 6865702.915 10 0 60656 65700.00000 0 23151012.453 -4232975.871 9857183.891 10 0 60656 66600.00000 0 21832564.711 -3791575.703 12657354.868 10 0 60656 67500.00000 0 20258246.761 -3102709.164 15211989.040 10 0 60656 68400.00000 0 18485855.443 -2146986.995 17471667.877 10 0 60656 69300.00000 0 16577903.791 -916943.872 19392725.199 10 0 60656 70200.00000 0 14599067.849 582402.018 20938077.257 10 0 60656 71100.00000 0 12613566.397 2333515.747 22077924.253 10 0 60656 72000.00000 0 10682582.009 4306840.138 22790311.291 10 0 60656 72900.00000 0 8861829.515 6461797.666 23061539.511 10 0 60656 73800.00000 0 7199371.371 8748258.804 22886420.751 10 0 60656 74700.00000 0 5733769.000 11108416.862 22268371.845 10 0 60656 75600.00000 0 4492645.125 13478992.913 21219347.248 10 0 60656 76500.00000 0 3491715.239 15793681.013 19759611.364 10 0 60656 77400.00000 0 2734327.230 17985733.987 17917354.519 10 0 60656 78300.00000 0 2211527.379 19990584.194 15728159.128 10 0 60656 79200.00000 0 1902649.471 21748391.889 13234325.130 10 0 60656 80100.00000 0 1776402.294 23206416.334 10484066.321 10 0 60656 81000.00000 0 1792410.178 24321111.625 7530591.644 10 0 60656 81900.00000 0 1903142.330 25059859.993 4431087.758 10 0 60656 82800.00000 0 2056150.279 25402269.855 1245621.464 10 0 60656 83700.00000 0 2196519.539 25340983.554 -1964017.682 10 0 60656 84600.00000 0 2269432.129 24881959.825 -5135512.648 10 0 60656 85500.00000 0 2222731.457 24044217.833 -8207229.017 10 0 60657 0.00000 0 2009380.458 22859052.231 -11119415.940 10 0 60657 900.00000 0 1589707.707 21368750.200 -13815375.652 10 0 60657 1800.00000 0 933345.264 19624864.896 -16242574.170 10 0 60657 2700.00000 0 20773.980 17686114.864 -18353675.894 10 0 60657 3600.00000 0 -1155590.964 15615998.635 -20107477.087 10 0 60657 4500.00000 0 -2590822.508 13480223.897 -21469720.690 10 0 60657 5400.00000 0 -4267438.774 11344059.301 -22413775.430 10 0 60657 6300.00000 0 -6155898.665 9269720.266 -22921165.227 10 0 60657 7200.00000 0 -8215616.995 7313898.813 -22981937.869 10 0 60657 8100.00000 0 -10396457.934 5525541.337 -22594865.240 10 0 60657 9000.00000 0 -12640645.106 3943967.705 -21767470.782 10 0 60657 9900.00000 0 -14885008.778 2597410.525 -20515883.404 10 0 60657 10800.00000 0 -17063476.068 1502035.500 -18864520.570 10 0 60657 11700.00000 0 -19109699.594 661483.233 -16845606.867 10 0 60657 12600.00000 0 -20959713.923 66950.576 -14498537.711 10 0 60657 13500.00000 0 -22554507.913 -302193.488 -11869101.150 10 0 60657 14400.00000 0 -23842404.577 -477285.241 -9008573.645 10 0 60657 15300.00000 0 -24781148.263 -498786.387 -5972708.430 10 0 60657 16200.00000 0 -25339611.556 -414315.877 -2820637.254 10 0 60657 17100.00000 0 -25499050.594 -276378.750 386291.952 10 0 60657 18000.00000 0 -25253856.835 -139890.002 3585717.661 10 0 60657 18900.00000 0 -24611774.857 -59599.875 6715483.202 10 0 60657 19800.00000 0 -23593578.464 -87530.712 9714846.636 10 0 60657 20700.00000 0 -22232220.226 -270534.520 12525658.089 10 0 60657 21600.00000 0 -20571491.652 -648074.728 15093481.730 10 0 60657 22500.00000 0 -18664251.394 -1250325.655 17368641.066 10 0 60657 23400.00000 0 -16570296.548 -2096669.403 19307168.175 10 0 60657 24300.00000 0 -14353966.393 -3194652.900 20871639.716 10 0 60657 25200.00000 0 -12081578.397 -4539448.397 22031885.073 10 0 60657 26100.00000 0 -9818802.592 -6113839.755 22765554.467 10 0 60657 27000.00000 0 -7628082.340 -7888735.132 23058537.661 10 0 60657 27900.00000 0 -5566207.059 -9824185.117 22905226.467 10 0 60657 28800.00000 0 -3682135.872 -11870864.711 22308616.999 10 0 60657 29700.00000 0 -2015160.616 -13971958.746 21280250.251 10 0 60657 30600.00000 0 -593482.627 -16065373.823 19839992.216 10 0 60657 31500.00000 0 566739.140 -18086186.528 18015657.360 10 0 60657 32400.00000 0 1461830.331 -19969227.791 15842481.885 10 0 60657 33300.00000 0 2100516.177 -21651697.466 13362455.732 10 0 60657 34200.00000 0 2503313.246 -23075701.447 10623524.835 10 0 60657 35100.00000 0 2701423.474 -24190606.367 7678677.600 10 0 60657 36000.00000 0 2735176.651 -24955113.914 4584931.811 10 0 60657 36900.00000 0 2652086.424 -25338967.788 1402240.456 10 0 60657 37800.00000 0 2504601.326 -25324221.116 -1807663.271 10 0 60657 38700.00000 0 2347645.413 -24906010.057 -4982459.955 10 0 60657 39600.00000 0 2236052.433 -24092799.652 -8060453.870 10 0 60657 40500.00000 0 2222002.381 -22906089.996 -10981775.165 10 0 60657 41400.00000 0 2352569.705 -21379593.380 -13689550.462 10 0 60657 42300.00000 0 2667488.097 -19557915.500 -16131018.356 10 0 60657 43200.00000 0 3197228.047 -17494794.790 -18258567.241 10 0 60657 44100.00000 0 3961470.326 -15250972.865 -20030674.343 10 0 60657 45000.00000 0 4968041.966 -12891784.771 -21412726.693 10 0 60657 45900.00000 0 6212361.769 -10484569.848 -22377707.195 10 0 60657 46800.00000 0 7677420.766 -8096011.629 -22906731.601 10 0 60657 47700.00000 0 9334300.273 -5789518.422 -22989425.265 10 0 60657 48600.00000 0 11143207.249 -3622754.473 -22624131.752 10 0 60657 49500.00000 0 13054984.555 -1645425.239 -21817948.821 10 0 60657 50400.00000 0 15013033.298 102590.424 -20586590.801 10 0 60657 51300.00000 0 16955566.799 1592683.222 -18954079.933 10 0 60657 52200.00000 0 18818101.379 2808471.660 -16952272.765 10 0 60657 53100.00000 0 20536078.916 3746236.367 -14620231.139 10 0 60657 54000.00000 0 22047510.390 4414813.754 -12003450.547 10 0 60657 54900.00000 0 23295528.717 4834955.316 -9152961.634 10 0 60657 55800.00000 0 24230742.953 5038181.706 -6124323.317 10 0 60657 56700.00000 0 24813294.594 5065182.239 -2976528.263 10 0 60657 57600.00000 0 25014529.475 4963829.747 229156.837 10 0 60657 58500.00000 0 24818215.300 4786896.885 3430392.396 10 0 60657 59400.00000 0 24221254.370 4589572.396 6564984.111 10 0 60657 60300.00000 0 23233862.558 4426883.871 9572093.755 10 0 60657 61200.00000 0 21879208.278 4351137.044 12393418.576 10 0 60657 62100.00000 0 20192527.866 4409480.333 14974316.439 10 0 60657 63000.00000 0 18219755.580 4641697.520 17264855.320 10 0 60657 63900.00000 0 16015726.449 5078321.271 19220767.642 10 0 60657 64800.00000 0 13642027.493 5739146.378 20804292.216 10 0 60657 65700.00000 0 11164586.848 6632204.503 21984888.966 10 0 60657 66600.00000 0 8651100.639 7753242.896 22739814.199 10 0 60657 67500.00000 0 6168403.440 9085728.570 23054546.843 10 0 60657 68400.00000 0 3779889.996 10601377.816 22923058.779 10 0 60657 69300.00000 0 1543093.353 12261189.387 22347925.037 10 0 60657 70200.00000 0 -492482.143 14016939.164 21340272.322 10 0 60657 71100.00000 0 -2287185.066 15813075.276 19919566.941 10 0 60657 72000.00000 0 -3812624.429 17588936.235 18113245.830 10 0 60657 72900.00000 0 -5052603.527 19281201.277 15956196.976 10 0 60657 73800.00000 0 -6003542.382 20826472.382 13490098.048 10 0 60657 74700.00000 0 -6674371.870 22163881.550 10762624.662 10 0 60657 75600.00000 0 -7085904.290 23237615.455 7826542.094 10 0 60657 76500.00000 0 -7269706.696 23999252.400 4738696.583 10 0 60657 77400.00000 0 -7266524.022 24409813.671 1558924.585 10 0 60657 78300.00000 0 -7124317.998 24441442.716 -1651099.798 10 0 60657 79200.00000 0 -6896004.134 24078640.600 -4829057.469 10 0 60657 80100.00000 0 -6636982.187 23319004.340 -7913194.019 10 0 60657 81000.00000 0 -6402564.553 22173435.333 -10843522.844 10 0 60657 81900.00000 0 -6245411.860 20665807.231 -13562997.802 10 0 60657 82800.00000 0 -6213085.089 18832105.340 -16018631.902 10 0 60657 83700.00000 0 -6345819.032 16719072.027 -18162539.396 10 0 60657 84600.00000 0 -6674612.803 14382413.539 -19952880.077 10 0 60657 85500.00000 0 -7219719.854 11884642.422 -21354686.410 99